フェイ彗星

4P/Faye (1999)

English version
Home page
Updated on May 3, 2000

---------------------------------------------------------------------

・ プロフィール

・ 写真集

・ 軌道要素

   The following improved orbital elements by Kenji Muraoka, 
  are from 349 observations 1983 to 1998, including 9 Planets, 
  Moon and 5 minor planets perturbations and non-gravitational 
  effect of style II.  The mean residual is +/- 0.83 arc seconds.

      Epoch  =  1999 May  22.0  TT       JDT = 2451320.5
          T  =  1999 May   6.10348       +/- 0.00035 (m.e.) TT
       Peri. =  204.97434                +/- 0.00015
       Node  =  199.33887                +/- 0.00006   (2000.0)
       Incl. =    9.04894                +/- 0.00001
          q  =    1.6570009              +/- 0.0000007 AU
          e  =    0.5682548              +/- 0.0000002
          a  =    3.8379141              +/- 0.0000006 AU
          n  =    0.13108747             +/- 0.00000003
          P  =    7.519                  +/- 0.0000018  years
         A1  =   +0.546                  +/- 0.021
         A2  =   -0.01936                +/- 0.00026

・ 星図

・ 光度変化

        m1 =  3.8 + 5 logΔ + 25.0 log r  [   ,  0]  (              〜1999年 5月 6日)
        m1 =  5.3 + 5 logΔ + 23.0 log r  [  0,170]  (1999年 5月 6日〜1999年10月23日)
        m1 = 10.0 + 5 logΔ + 10.0 log r  [170,   ]  (1999年10月23日〜              )

---------------------------------------------------------------------

軌道要素は村岡健治氏の計算によるものです。
星図は StellaNavigator Ver.2.0 for Windows (アストロアーツ 編著 / アスキー出版局刊) で作成したものです。
光度グラフはComet for Windowsで作成したものです。

---------------------------------------------------------------------

Copyright(C) Seiichi Yoshida (comet@aerith.net). All rights reserved.